Location: *
(40.7873°S, 98.7174°E)
Time: 00:00:05
(UTC+00:00)

ARIANE 6 FM1 Upper Stage - Pass Details

Date: 18 December 2025
Orbit: 522 x 610 km, 62.0° (Epoch: 20 January)

Event Time Altitude Azimuth Distance (km) Brightness Sun altitude
Rises 17:10:06 0° 205° (SSW) 2,913 7.4 -25.7°
Reaches altitude 10° 17:13:19 10° 182° (S) 1,997 6.5 -25.8°
Maximum altitude 17:15:58 15° 146° (SE) 1,671 5.7 -25.8°
Drops below altitude 10° 17:18:35 10° 110° (ESE) 1,970 5.6 -25.8°
Enters shadow 17:21:00 - 90° (E) 2,621 6.1 -25.8°
